GW2742 Weather Reports


time (UTC)temp
C
wind
direction
speed
KPH
gust
KPH
rain 1hr
cm
rain 24hr
cm
rain mn
cm
humidity
%
barometer
mb
20260901225524 26 228 0.0 6.4 0.00 0.00 0.00 37 1011.8
20260901225024 27 225 1.6 9.7 0.00 0.00 0.00 33 1011.6
20260901224546 27 176 4.8 9.7 0.00 0.00 0.00 34 1011.7
20260901224024 27 233 3.2 8.0 0.00 0.00 0.00 38 1011.6
20260901223524 27 220 3.2 8.0 0.00 0.00 0.00 33 1011.6
20260901223047 27 187 1.6 12.9 0.00 0.00 0.00 35 1011.6
20260901222525 27 235 6.4 12.9 0.00 0.00 0.00 31 1011.6
20260901222024 27 213 3.2 12.9 0.00 0.00 0.00 34 1011.6
20260901221608 28 233 3.2 12.9 0.00 0.00 0.00 32 1011.6
20260901221028 28 185 1.6 11.3 0.00 0.00 0.00 31 1011.6
20260901220528 28 173 4.8 11.3 0.00 0.00 0.00 29 1011.6
20260901220115 28 0 1.6 9.7 0.00 0.00 0.00 30 1011.6
20260901215527 28 204 4.8 9.7 0.00 0.00 0.00 30 1011.7
20260901215025 28 0 0.0 11.3 0.00 0.00 0.00 28 1011.7
20260901214550 28 218 1.6 11.3 0.00 0.00 0.00 29 1011.8
20260901214028 28 186 3.2 9.7 0.00 0.00 0.00 33 1011.9
20260901213525 28 163 1.6 4.8 0.00 0.00 0.00 35 1011.9
20260901213105 28 0 1.6 6.4 0.00 0.00 0.00 37 1011.9
20260901212527 28 0 1.6 6.4 0.00 0.00 0.00 35 1012.1
20260901212029 28 0 1.6 9.7 0.00 0.00 0.00 32 1012.0
20260901211546 28 0 4.8 9.7 0.00 0.00 0.00 31 1012.0
20260901211027 27 279 4.8 12.9 0.00 0.00 0.00 30 1012.1
20260901210530 27 203 1.6 12.9 0.00 0.00 0.00 33 1012.2
20260901210044 27 168 4.8 12.9 0.00 0.00 0.00 32 1012.2
20260901205527 27 193 1.6 6.4 0.00 0.00 0.00 30 1012.1
20260901205029 27 326 1.6 8.0 0.00 0.00 0.00 32 1012.3
20260901204601 27 47 3.2 8.0 0.00 0.00 0.00 30 1012.5
20260901204027 27 0 0.0 4.8 0.00 0.00 0.00 32 1012.6
20260901203528 27 193 1.6 11.3 0.00 0.00 0.00 32 1012.5
20260901203045 27 131 1.6 11.3 0.00 0.00 0.00 35 1012.7
20260901202527 27 200 3.2 8.0 0.00 0.00 0.00 34 1012.8
20260901202028 27 290 3.2 8.0 0.00 0.00 0.00 33 1012.9
20260901201546 27 37 1.6 8.0 0.00 0.00 0.00 37 1013.0
20260901201027 27 75 1.6 8.0 0.00 0.00 0.00 37 1013.0
20260901200530 27 124 1.6 8.0 0.00 0.00 0.00 34 1013.1
20260901200114 27 210 1.6 8.0 0.00 0.00 0.00 36 1013.1
20260901195524 26 214 1.6 8.0 0.00 0.00 0.00 35 1013.1
20260901195026 26 217 4.8 8.0 0.00 0.00 0.00 34 1013.1
20260901194606 26 202 3.2 12.9 0.00 0.00 0.00 37 1013.1
20260901194030 26 0 3.2 12.9 0.00 0.00 0.00 35 1013.1
20260901193528 26 161 3.2 8.0 0.00 0.00 0.00 44 1013.2
20260901193050 26 148 3.2 9.7 0.00 0.00 0.00 39 1013.3
20260901192530 26 261 4.8 9.7 0.00 0.00 0.00 41 1013.2
20260901192026 26 197 1.6 9.7 0.00 0.00 0.00 41 1013.3
20260901191628 26 249 3.2 8.0 0.00 0.00 0.00 40 1013.4
20260901191025 26 185 3.2 11.3 0.00 0.00 0.00 39 1013.5
20260901190525 26 184 3.2 11.3 0.00 0.00 0.00 40 1013.6
20260901190057 26 207 4.8 9.7 0.00 0.00 0.00 43 1013.6
20260901185528 25 265 3.2 9.7 0.00 0.00 0.00 45 1013.7
20260901185025 25 271 3.2 11.3 0.00 0.00 0.00 44 1013.7
20260901184544 25 233 4.8 11.3 0.00 0.00 0.00 47 1013.8
20260901184025 25 288 3.2 11.3 0.00 0.00 0.00 49 1013.7
20260901183528 25 265 1.6 6.4 0.00 0.00 0.00 45 1013.9
20260901183056 25 0 1.6 6.4 0.00 0.00 0.00 47 1014.0
20260901182525 25 262 1.6 8.0 0.00 0.00 0.00 45 1013.9
20260901182028 25 274 1.6 9.7 0.00 0.00 0.00 43 1014.0
20260901181600 25 191 3.2 14.5 0.00 0.00 0.00 42 1014.0
20260901181027 25 195 4.8 14.5 0.00 0.00 0.00 44 1014.1
20260901180525 25 221 6.4 14.5 0.00 0.00 0.00 44 1014.2
20260901180045 25 0 6.4 14.5 0.00 0.00 0.00 43 1014.3
20260901175530 25 194 4.8 14.5 0.00 0.00 0.00 46 1014.3
20260901175024 25 146 6.4 17.7 0.00 0.00 0.00 43 1014.4
20260901174546 25 110 8.0 17.7 0.00 0.00 0.00 46 1014.4
20260901174027 25 207 4.8 17.7 0.00 0.00 0.00 45 1014.3
20260901173532 24 231 8.0 17.7 0.00 0.00 0.00 47 1014.4
20260901173052 24 155 8.0 16.1 0.00 0.00 0.00 46 1014.6
20260901172525 23 141 6.4 14.5 0.00 0.00 0.00 49 1014.6
20260901172026 23 131 3.2 11.3 0.00 0.00 0.00 53 1014.6
20260901171558 22 203 1.6 6.4 0.00 0.00 0.00 47 1014.6
20260901171024 22 241 1.6 4.8 0.00 0.00 0.00 46 1014.7
20260901170526 22 278 1.6 6.4 0.00 0.00 0.00 48 1014.7
20260901170057 22 229 1.6 6.4 0.00 0.00 0.00 46 1014.8
20260901165525 21 0 1.6 6.4 0.00 0.00 0.00 45 1014.7
20260901165024 21 198 1.6 6.4 0.00 0.00 0.00 45 1014.9
20260901164546 21 191 1.6 6.4 0.00 0.00 0.00 43 1014.8
20260901164027 21 185 1.6 6.4 0.00 0.00 0.00 47 1015.0
20260901163527 21 225 0.0 6.4 0.00 0.00 0.00 46 1015.0
20260901163054 21 0 1.6 8.0 0.00 0.00 0.00 41 1014.9
20260901162525 21 233 1.6 8.0 0.00 0.00 0.00 46 1015.0
20260901162029 21 161 1.6 8.0 0.00 0.00 0.00 44 1015.0
20260901161552 20 204 3.2 8.0 0.00 0.00 0.00 42 1015.1
20260901161026 20 198 3.2 8.0 0.00 0.00 0.00 42 1015.0
20260901160525 20 224 3.2 8.0 0.00 0.00 0.00 42 1015.0
20260901160105 20 206 1.6 6.4 0.00 0.00 0.00 43 1015.1
20260901155527 20 197 1.6 6.4 0.00 0.00 0.00 45 1015.2
20260901155028 19 255 3.2 6.4 0.00 0.00 0.00 43 1015.2
20260901154545 19 260 0.0 3.2 0.00 0.00 0.00 42 1015.1
20260901154025 19 0 0.0 3.2 0.00 0.00 0.00 43 1015.2
20260901153526 18 0 0.0 3.2 0.00 0.00 0.00 42 1015.3
20260901153058 18 0 0.0 0.0 0.00 0.00 0.00 49 1015.4
20260901152529 17 0 0.0 1.6 0.00 0.00 0.00 53 1015.3
20260901152025 17 0 0.0 1.6 0.00 0.00 0.00 52 1015.3
20260901151546 17 203 0.0 3.2 0.00 0.00 0.00 53 1015.4
20260901151026 16 0 0.0 4.8 0.00 0.00 0.00 59 1015.3
20260901150530 16 203 1.6 4.8 0.00 0.00 0.00 59 1015.3
20260901150058 16 203 3.2 4.8 0.00 0.00 0.00 54 1015.2
20260901145527 16 191 1.6 4.8 0.00 0.00 0.00 56 1015.2
20260901145027 15 0 0.0 4.8 0.00 0.00 0.00 61 1015.2
20260901144549 15 0 0.0 4.8 0.00 0.00 0.00 59 1015.4
20260901144025 15 211 1.6 6.4 0.00 0.00 0.00 60 1015.5
20260901143527 14 212 1.6 6.4 0.00 0.00 0.00 58 1015.4
20260901143107 14 275 3.2 4.8 0.00 0.00 0.00 58 1015.4
20260901142525 13 262 1.6 4.8 0.00 0.00 0.00 59 1015.4
20260901142024 13 272 0.0 8.0 0.00 0.00 0.00 62 1015.4
20260901141545 13 0 0.0 8.0 0.00 0.00 0.00 64 1015.3
20260901141025 12 307 0.0 4.8 0.00 0.00 0.00 68 1015.3
20260901140526 12 0 0.0 6.4 0.00 0.00 0.00 67 1015.2
20260901140128 11 291 1.6 6.4 0.00 0.00 0.00 65 1015.2
20260901135529 11 259 3.2 6.4 0.00 0.00 0.00 65 1015.2
20260901135028 11 0 0.0 3.2 0.00 0.00 0.00 66 1015.2
20260901134549 11 0 0.0 4.8 0.00 0.00 0.00 66 1015.2
20260901134031 10 0 1.6 4.8 0.00 0.00 0.00 66 1015.1
20260901133527 10 271 0.0 3.2 0.00 0.00 0.00 68 1015.0
20260901133046 10 271 0.0 3.2 0.00 0.00 0.00 70 1015.1
20260901132529 10 295 0.0 3.2 0.00 0.00 0.00 73 1015.0
20260901132031 10 0 0.0 4.8 0.00 0.00 0.00 72 1014.8
20260901131546 10 0 0.0 4.8 0.00 0.00 0.00 72 1014.9
20260901131028 10 295 1.6 4.8 0.00 0.00 0.00 69 1015.0
20260901130530 10 0 0.0 3.2 0.00 0.00 0.00 69 1015.0
20260901130051 10 0 1.6 4.8 0.00 0.00 0.00 69 1014.8
20260901125524 10 0 0.0 4.8 0.00 0.00 0.00 71 1014.8
20260901125025 10 293 0.0 4.8 0.00 0.00 0.00 70 1014.9
20260901124547 10 0 0.0 4.8 0.00 0.00 0.00 70 1014.8
20260901124030 10 295 0.0 4.8 0.00 0.00 0.00 70 1014.9
20260901123529 10 0 0.0 0.0 0.00 0.00 0.00 68 1015.2
20260901123045 10 0 0.0 0.0 0.00 0.00 0.00 66 1015.1
20260901122526 10 0 0.0 0.0 0.00 0.00 0.00 66 1015.1
20260901122027 10 0 0.0 3.2 0.00 0.00 0.00 67 1015.0
20260901121543 10 0 0.0 3.2 0.00 0.00 0.00 68 1015.0
20260901121029 10 0 0.0 3.2 0.00 0.00 0.00 69 1015.1
20260901120526 10 154 0.0 4.8 0.00 0.00 0.00 69 1015.1
20260901120052 10 0 0.0 8.0 0.00 0.00 0.00 70 1015.1
20260901115529 10 206 3.2 8.0 0.00 0.00 0.00 69 1015.1
20260901115024 10 216 0.0 3.2 0.00 0.00 0.00 69 1015.2
20260901114550 10 216 0.0 4.8 0.00 0.00 0.00 68 1015.1
20260901114028 10 216 1.6 4.8 0.00 0.00 0.00 68 1015.2
20260901113532 10 208 0.0 4.8 0.00 0.00 0.00 69 1015.1
20260901113045 10 209 0.0 4.8 0.00 0.00 0.00 69 1014.9
20260901112526 10 0 0.0 4.8 0.00 0.00 0.00 68 1014.8
20260901112025 10 219 1.6 4.8 0.00 0.00 0.00 68 1014.7
20260901111545 10 198 1.6 4.8 0.00 0.00 0.00 69 1014.9
20260901111028 10 205 1.6 6.4 0.00 0.00 0.00 69 1014.9
20260901110526 10 205 1.6 6.4 0.00 0.00 0.00 69 1014.8
20260901110052 10 207 1.6 6.4 0.00 0.00 0.00 69 1014.9
20260901105529 10 214 1.6 4.8 0.00 0.00 0.00 69 1014.8
20260901105026 10 204 0.0 4.8 0.00 0.00 0.00 70 1014.8
20260901104546 10 204 1.6 4.8 0.00 0.00 0.00 70 1014.7
20260901104028 10 203 1.6 6.4 0.00 0.00 0.00 71 1014.6
20260901103528 10 0 1.6 6.4 0.00 0.00 0.00 71 1014.8
20260901103044 10 0 0.0 4.8 0.00 0.00 0.00 71 1014.7
20260901102528 10 188 0.0 4.8 0.00 0.00 0.00 71 1014.8
20260901102025 9 0 0.0 0.0 0.00 0.00 0.00 71 1014.7
20260901101604 9 0 0.0 3.2 0.00 0.00 0.00 72 1014.7
20260901101024 10 0 0.0 3.2 0.00 0.00 0.00 72 1014.6
20260901100525 10 250 0.0 3.2 0.00 0.00 0.00 72 1014.6
20260901100051 10 0 0.0 6.4 0.00 0.00 0.00 72 1014.6
20260901095525 10 0 0.0 6.4 0.00 0.00 0.00 72 1014.7
20260901095027 10 250 1.6 6.4 0.00 0.00 0.00 73 1014.7
20260901094545 10 0 0.0 3.2 0.00 0.00 0.00 74 1014.7
20260901094029 10 0 0.0 3.2 0.00 0.00 0.00 74 1014.7
20260901093525 10 0 0.0 6.4 0.00 0.00 0.00 73 1014.7
20260901093050 10 205 3.2 6.4 0.00 0.00 0.00 71 1014.8
20260901092527 10 212 0.0 4.8 0.00 0.00 0.00 71 1014.7
20260901092028 10 0 0.0 1.6 0.00 0.00 0.00 71 1014.7
20260901091554 10 274 0.0 1.6 0.00 0.00 0.00 72 1014.7
20260901091025 10 0 0.0 3.2 0.00 0.00 0.00 72 1014.8
20260901090524 10 0 0.0 6.4 0.00 0.00 0.00 70 1014.8
20260901090046 10 274 1.6 6.4 0.00 0.00 0.00 69 1014.8
20260901085527 10 285 1.6 6.4 0.00 0.00 0.00 69 1014.8
20260901085027 10 309 0.0 4.8 0.00 0.00 0.00 69 1014.9
20260901084553 10 309 0.0 4.8 0.00 0.00 0.00 68 1015.0
20260901084025 11 242 0.0 3.2 0.00 0.00 0.00 68 1015.0
20260901083526 11 0 0.0 3.2 0.00 0.00 0.00 64 1015.1
20260901083047 11 0 0.0 3.2 0.00 0.00 0.00 64 1015.1
20260901082527 11 0 0.0 3.2 0.00 0.00 0.00 63 1015.0
20260901082028 11 0 0.0 3.2 0.00 0.00 0.00 62 1015.0
20260901081552 11 217 0.0 3.2 0.00 0.00 0.00 59 1015.0
20260901081025 11 217 0.0 3.2 0.00 0.00 0.00 60 1015.0
20260901080528 11 217 0.0 3.2 0.00 0.00 0.00 60 1015.0
20260901080141 11 0 0.0 3.2 0.00 0.00 0.00 58 1014.9
20260901075524 11 217 0.0 3.2 0.00 0.00 0.00 58 1014.9
20260901075026 11 0 0.0 3.2 0.00 0.00 0.00 56 1015.0
20260901074545 11 217 0.0 3.2 0.00 0.00 0.00 57 1015.0
20260901074027 11 217 0.0 4.8 0.00 0.00 0.00 57 1015.2
20260901073527 11 217 1.6 4.8 0.00 0.00 0.00 58 1015.2
20260901073045 11 206 1.6 4.8 0.00 0.00 0.00 60 1015.2
20260901072528 11 210 0.0 4.8 0.00 0.00 0.00 62 1015.3
20260901072026 11 210 1.6 6.4 0.00 0.00 0.00 62 1015.2
20260901071553 11 214 3.2 6.4 0.00 0.00 0.00 62 1015.2
20260901071031 11 205 4.8 6.4 0.00 0.00 0.00 64 1015.2
20260901070527 11 195 1.6 4.8 0.00 0.00 0.00 65 1015.2
20260901070048 11 207 1.6 6.4 0.00 0.00 0.00 67 1015.2
20260901065529 11 191 3.2 6.4 0.00 0.00 0.00 67 1015.3
20260901065024 11 200 1.6 4.8 0.00 0.00 0.00 67 1015.4
20260901064546 11 0 0.0 4.8 0.00 0.00 0.00 66 1015.4
20260901064025 11 200 1.6 4.8 0.00 0.00 0.00 66 1015.5
20260901063523 11 200 0.0 3.2 0.00 0.00 0.00 66 1015.6
20260901063058 11 0 0.0 0.0 0.00 0.00 0.00 66 1015.6
20260901062524 11 0 0.0 0.0 0.00 0.00 0.00 65 1015.6
20260901062027 11 0 0.0 3.2 0.00 0.00 0.00 64 1015.7
20260901061601 11 0 0.0 4.8 0.00 0.00 0.00 63 1015.7
20260901061024 11 236 0.0 4.8 0.00 0.00 0.00 63 1015.8
20260901060531 12 0 0.0 3.2 0.00 0.00 0.00 64 1015.7
20260901060045 12 223 1.6 3.2 0.00 0.00 0.00 64 1015.7
20260901055527 12 0 0.0 3.2 0.00 0.00 0.00 62 1015.7
20260901055027 12 0 0.0 3.2 0.00 0.00 0.00 60 1015.7
20260901054552 12 223 0.0 1.6 0.00 0.00 0.00 61 1015.5
20260901054025 12 0 0.0 3.2 0.00 0.00 0.00 59 1015.7
20260901053527 12 0 0.0 4.8 0.00 0.00 0.00 60 1015.6
20260901053049 12 0 0.0 4.8 0.00 0.00 0.00 59 1015.7
20260901052523 12 221 0.0 3.2 0.00 0.00 0.00 58 1015.5
20260901052030 13 0 0.0 0.0 0.00 0.00 0.00 60 1015.6
20260901051559 13 0 0.0 0.0 0.00 0.00 0.00 59 1015.6
20260901051029 13 0 0.0 0.0 0.00 0.00 0.00 59 1015.6
20260901050526 13 0 0.0 0.0 0.00 0.00 0.00 59 1015.7
20260901050052 13 0 0.0 0.0 0.00 0.00 0.00 58 1015.5
20260901045528 13 0 0.0 0.0 0.00 0.00 0.00 57 1015.6
20260901045026 13 0 0.0 0.0 0.00 0.00 0.00 57 1015.6
20260901044604 13 0 0.0 0.0 0.00 0.00 0.00 53 1015.6
20260901044025 13 0 0.0 1.6 0.00 0.00 0.00 52 1015.5
20260901043528 14 0 0.0 1.6 0.00 0.00 0.00 51 1015.8
20260901043047 14 0 0.0 1.6 0.00 0.00 0.00 51 1015.8
20260901042524 14 0 0.0 0.0 0.00 0.00 0.00 50 1015.7
20260901042024 14 0 0.0 0.0 0.00 0.00 0.00 48 1015.8
20260901041544 14 0 0.0 0.0 0.00 0.00 0.00 47 1016.0
20260901041028 14 0 0.0 0.0 0.00 0.00 0.00 47 1015.9
20260901040524 14 0 0.0 0.0 0.00 0.00 0.00 45 1015.9
20260901035524 15 0 0.0 0.0 0.00 0.00 0.00 47 1015.9
20260901035024 15 0 0.0 1.6 0.00 0.00 0.00 48 1015.8
20260901034551 15 0 0.0 1.6 0.00 0.00 0.00 47 1015.9
20260901034023 15 0 0.0 1.6 0.00 0.00 0.00 47 1015.8
20260901033524 15 0 0.0 3.2 0.00 0.00 0.00 50 1015.8
20260901033045 16 0 0.0 3.2 0.00 0.00 0.00 51 1015.7
20260901032524 16 51 0.0 3.2 0.00 0.00 0.00 49 1015.7
20260901032028 16 0 0.0 0.0 0.00 0.00 0.00 43 1015.6
20260901031545 16 0 0.0 0.0 0.00 0.00 0.00 44 1015.7
20260901031027 16 0 0.0 0.0 0.00 0.00 0.00 44 1015.6
20260901030524 16 0 0.0 0.0 0.00 0.00 0.00 42 1015.5
20260901030045 17 0 0.0 0.0 0.00 0.00 0.00 41 1015.4
20260901025527 17 0 0.0 0.0 0.00 0.00 0.00 42 1015.1
20260901025025 17 0 0.0 0.0 0.00 0.00 0.00 43 1015.1
20260901024558 17 0 0.0 0.0 0.00 0.00 0.00 43 1015.1
20260901024028 17 0 0.0 0.0 0.00 0.00 0.00 42 1015.1
20260901023526 17 0 0.0 0.0 0.00 0.00 0.00 43 1015.0
20260901023049 17 0 0.0 0.0 0.00 0.00 0.00 39 1015.2
20260901022531 18 0 0.0 0.0 0.00 0.00 0.00 41 1015.0
20260901022027 18 0 0.0 0.0 0.00 0.00 0.00 42 1015.0
20260901021604 18 0 0.0 0.0 0.00 0.00 0.00 41 1015.0
20260901021025 18 0 0.0 0.0 0.00 0.00 0.00 40 1015.2
20260901020527 19 0 0.0 0.0 0.00 0.00 0.00 39 1015.1
20260901020046 20 0 0.0 0.0 0.00 0.00 0.00 38 1015.0
20260901015523 20 0 0.0 0.0 0.00 0.00 0.00 36 1015.2
20260901015025 20 0 0.0 0.0 0.00 0.00 0.00 35 1015.2
20260901014546 21 0 0.0 0.0 0.00 0.00 0.00 36 1015.2
20260901014024 21 0 0.0 0.0 0.00 0.00 0.00 36 1015.2
20260901013527 21 0 0.0 0.0 0.00 0.00 0.00 37 1015.2
20260901013101 21 0 0.0 0.0 0.00 0.00 0.00 35 1015.2
20260901012528 22 0 0.0 0.0 0.00 0.00 0.00 34 1015.2
20260901012029 22 0 0.0 0.0 0.00 0.00 0.00 35 1015.1
20260901011545 22 0 0.0 0.0 0.00 0.00 0.00 35 1015.1
20260901011027 23 0 0.0 0.0 0.00 0.00 0.00 34 1015.1
20260901010525 23 0 0.0 0.0 0.00 0.00 0.00 33 1015.1
20260901010045 23 0 0.0 0.0 0.00 0.00 0.00 32 1015.0
20260901005524 24 0 0.0 0.0 0.00 0.00 0.00 31 1015.0
20260901005027 25 0 0.0 4.8 0.00 0.00 0.00 30 1014.9
20260901004548 25 0 0.0 4.8 0.00 0.00 0.00 29 1014.9
20260901004024 25 33 0.0 6.4 0.00 0.00 0.00 26 1014.9
20260901003524 26 0 1.6 9.7 0.00 0.00 0.00 25 1014.9
20260901003052 26 68 3.2 9.7 0.00 0.00 0.00 26 1015.0
20260901002526 26 30 4.8 9.7 0.00 0.00 0.00 23 1015.2
20260901002027 26 60 3.2 12.9 0.00 0.00 0.00 24 1015.2
20260901001546 26 20 6.4 12.9 0.00 0.00 0.00 24 1015.2
20260901001025 26 10 4.8 11.3 0.00 0.00 0.00 25 1015.1
20260901000524 26 37 4.8 11.3 0.00 0.00 0.00 21 1015.1
20260901000049 26 30 3.2 14.5 0.00 0.00 0.00 20 1015.3
20260831235525 26 28 6.4 14.5 0.00 0.00 0.00 20 1015.1
20260831235028 26 35 8.0 11.3 0.00 0.00 0.00 19 1015.3
20260831234544 26 25 3.2 12.9 0.00 0.00 0.00 22 1015.2
20260831234025 26 59 4.8 12.9 0.00 0.00 0.00 20 1015.4
20260831233528 26 30 6.4 12.9 0.00 0.00 0.00 22 1015.4
20260831233050 26 32 4.8 9.7 0.00 0.00 0.00 21 1015.5
20260831232526 26 41 4.8 11.3 0.00 0.00 0.00 21 1015.5
20260831232027 26 27 6.4 11.3 0.00 0.00 0.00 20 1015.6
20260831231603 26 52 3.2 9.7 0.00 0.00 0.00 21 1015.5
20260831231024 26 0 1.6 9.7 0.00 0.00 0.00 20 1015.7
20260831230525 26 30 3.2 11.3 0.00 0.00 0.00 21 1015.6
20260831230100 26 33 4.8 14.5 0.00 0.00 0.00 20 1015.5